Location: Parc des �les de St-Timoth�e
(45.2924°N, 74.0481°W)
Time: 03:33:26
(UTC-05:00)

ISS - All Passes

Search period start: 04 March 2015 00:00
Search period end: 14 March 2015 01:00
Orbit: 397 x 409 km, 51.6° (Epoch: 04 March)

Date Brightness Start Highest point End Pass type
(mag) Time Alt. Az. Time Alt. Az. Time Alt. Az.
04 Mar - 08:18:02 10° SSW 08:21:03 38° SE 08:24:06 10° ENE daylight
04 Mar - 09:54:24 10° W 09:57:29 41° NNW 10:00:35 10° NE daylight
04 Mar - 11:31:41 10° WNW 11:34:27 25° N 11:37:13 10° ENE daylight
04 Mar - 13:08:16 10° NW 13:11:24 44° NNE 13:14:32 10° E daylight
04 Mar - 14:44:48 10° WNW 14:47:48 34° SW 14:50:46 10° SSE daylight
05 Mar - 07:25:44 10° S 07:28:15 21° SE 07:30:49 10° E daylight
05 Mar - 09:01:16 10° WSW 09:04:27 61° NNW 09:07:40 10° ENE daylight
05 Mar - 10:38:30 10° WNW 10:41:18 26° N 10:44:07 10° NE daylight
05 Mar - 12:15:21 10° NW 12:18:19 33° NNE 12:21:18 10° E daylight
05 Mar - 13:51:42 10° WNW 13:54:55 62° SSW 13:58:07 10° SE daylight
06 Mar - 06:34:10 10° SSE 06:35:25 12° SE 06:36:47 10° ESE daylight
06 Mar - 08:08:11 10° SW 08:11:25 81° SSE 08:14:39 10° ENE daylight
06 Mar - 09:45:11 10° WNW 09:48:05 30° NNW 09:51:00 10° NE daylight
06 Mar - 11:22:16 10° NW 11:25:07 27° N 11:27:57 10° ENE daylight
06 Mar - 12:58:38 10° WNW 13:01:53 77° NNE 13:05:07 10° ESE daylight
06 Mar - 14:35:48 10° W 14:37:59 17° SW 14:40:05 10° S daylight
07 Mar - 07:15:15 10° SW 07:18:20 44° SE 07:21:27 10° ENE daylight
07 Mar - 08:51:45 10° W 08:54:48 38° NNW 08:57:52 10° NE daylight
07 Mar - 10:29:01 10° WNW 10:31:47 25° N 10:34:33 10° ENE daylight
07 Mar - 12:05:31 10° NW 12:08:41 48° NNE 12:11:50 10° E daylight
07 Mar - 13:42:08 10° WNW 13:44:59 29° SW 13:47:51 10° SSE daylight
08 Mar - 07:22:33 10° SSW 07:25:15 25° SE 07:27:58 10° E daylight
08 Mar - 08:58:18 10° WSW 09:01:30 55° NNW 09:04:41 10° NE daylight
08 Mar - 10:35:34 10° WNW 10:38:21 26° N 10:41:08 10° NE daylight
08 Mar - 12:12:19 10° NW 12:15:20 35° NNE 12:18:22 10° E daylight
08 Mar - 13:48:42 10° WNW 13:51:52 53° SW 13:55:01 10° SE daylight
09 Mar - 06:30:24 10° SSE 06:32:07 14° SE 06:33:56 10° E visible
09 Mar - 08:04:55 10° WSW 08:08:09 88° NNW 08:11:24 10° ENE daylight
09 Mar - 09:41:58 10° WNW 09:44:51 29° N 09:47:44 10° NE daylight
09 Mar - 11:18:59 10° NW 11:21:51 28° N 11:24:44 10° ENE daylight
09 Mar - 12:55:19 10° WNW 12:58:34 87° NNE 13:01:48 10° ESE daylight
09 Mar - 14:32:43 10° W 14:34:36 14° SW 14:36:24 10° SSW daylight
10 Mar - 07:11:38 10° SW 07:14:48 52° SE 07:17:57 10° ENE daylight
10 Mar - 08:48:16 10° W 08:51:17 35° NNW 08:54:19 10° NE daylight
10 Mar - 10:25:29 10° NW 10:28:15 26° N 10:31:02 10° ENE daylight
10 Mar - 12:01:56 10° NW 12:05:07 53° NNE 12:08:17 10° ESE daylight
10 Mar - 13:38:36 10° W 13:41:21 25° SW 13:44:05 10° SSE daylight
11 Mar - 06:18:35 10° SSW 06:21:24 28° SE 06:24:15 10° ENE visible
11 Mar - 07:54:32 10° W 07:57:41 50° NNW 08:00:51 10° NE daylight
11 Mar - 09:31:47 10° WNW 09:34:33 25° N 09:37:20 10° NE daylight
11 Mar - 11:08:27 10° NW 11:11:30 37° NNE 11:14:33 10° E daylight
11 Mar - 12:44:50 10° WNW 12:47:58 46° SW 12:51:04 10° SE daylight
12 Mar - 05:25:58 10° S 05:28:00 16° SE 05:30:05 10° E visible
12 Mar - 07:00:49 10° WSW 07:04:02 79° NNW 07:07:17 10° ENE daylight
12 Mar - 08:37:55 10° WNW 08:40:46 28° N 08:43:37 10° NE daylight
12 Mar - 10:14:51 10° NW 10:17:45 29° N 10:20:39 10° ENE daylight
12 Mar - 11:51:10 10° WNW 11:54:24 84° SW 11:57:38 10° ESE daylight
12 Mar - 13:28:51 10° WSW 13:30:22 13° SW 13:31:47 10° SSW daylight
13 Mar - 06:07:12 10° SW 06:10:23 59° SSE 06:13:35 10° ENE visible
13 Mar - 07:43:56 10° W 07:46:55 33° NNW 07:49:55 10° NE daylight
13 Mar - 09:21:05 10° NW 09:23:53 26° N 09:26:40 10° ENE daylight
13 Mar - 10:57:29 10° WNW 11:00:41 59° NNE 11:03:53 10° ESE daylight
13 Mar - 12:34:15 10° W 12:36:52 23° SW 12:39:27 10° SSE daylight
